Find Starlink 30503

NORAD ID: 57975 Int'l Des: 2023-151 Owner: SPXS Country: US Constellation: starlink operational
LEOCIRCULAR

現在のビュー

3D地球を読み込み中...

About Starlink 30503

Starlink 30503 (NORAD 57975) is a starlink constellation satellite (v2 mini) launched Sep 30, 2023 by SPXS of US. It operates in LEO, CIRCULAR orbit with a mass of 730.00 kg.

Starlink 30503について

説明を読み込み中...

次回通過

Passes for default location (London). Set your location on the main map for personalized predictions.

高度履歴

Loading altitude history...

軌道要素

1 57975U 23151M 26170.17824473 .00000719 00000-0 35663-4 0 9991
2 57975 43.0020 123.1709 0000641 243.1188 116.9598 15.27575395151280
Epoch: Jun 19, 2026 • Age: 4 hours

現在のステータス

高度 495.9 km
速度 7.62 km/s
衛星直下点 -42.84°S, 12.42°W
打ち上げ日 Sep 30, 2023
運用期間 2.7 years
タイプ internet

技術仕様

分類 Payload
質量 730.00 kg
乾燥質量 700.00 kg
総質量 730.00 kg
長さ 0.30 m
直径 4.10 m
スパン 29.00 m
形状 Box + pan
製造者 SPXS
バスタイプ Starlink V2M
フェーズステータス In Orbit
所有者/国 SPXS/US

Most Searched